Location: Prague
(50.0833°N, 14.4667°E)
Time: 11:30:44
(UTC+02:00)

ISS - All Passes

Search period start: 24 May 2024 00:00
Search period end: 03 June 2024 00:00
Orbit: 409 x 414 km, 51.6° (Epoch: 24 May)

Date Brightness Start Highest point End Pass type
(mag) Time Alt. Az. Time Alt. Az. Time Alt. Az.
24 May - 16:51:55 10° SSW 16:54:55 31° SSE 16:57:54 10° E daylight
24 May - 18:28:01 10° WSW 18:31:22 82° N 18:34:42 10° ENE daylight
24 May - 20:04:49 10° WNW 20:08:08 68° N 20:11:28 10° E daylight
24 May - 21:41:31 10° WNW 21:44:46 51° SSW 21:47:59 10° SE visible
24 May - 23:19:32 10° WSW 23:20:47 12° SW 23:22:02 10° SSW visible
25 May - 16:02:24 10° SSW 16:04:58 21° SE 16:07:34 10° E daylight
25 May - 17:37:56 10° WSW 17:41:15 79° SSE 17:44:36 10° ENE daylight
25 May - 19:14:40 10° W 19:17:59 64° N 19:21:19 10° E daylight
25 May - 20:51:23 10° WNW 20:54:42 72° SSW 20:58:01 10° ESE daylight
25 May - 22:28:33 10° W 22:30:55 18° SW 22:33:17 10° S visible
26 May - 15:13:18 10° S 15:15:03 14° SE 15:16:49 10° ESE daylight
26 May - 16:47:53 10° SW 16:51:09 57° SSE 16:54:26 10° ENE daylight
26 May - 18:24:29 10° W 18:27:48 66° N 18:31:07 10° E daylight
26 May - 20:01:14 10° WNW 20:04:34 87° NNE 20:07:54 10° ESE daylight
26 May - 21:38:04 10° W 21:40:57 27° SW 21:43:49 10° SSE visible
27 May - 15:57:55 10° SW 16:01:03 39° SSE 16:04:12 10° E daylight
27 May - 17:34:15 10° W 17:37:34 74° N 17:40:55 10° ENE daylight
27 May - 19:11:01 10° WNW 19:14:21 73° N 19:17:41 10° E daylight
27 May - 20:47:44 10° W 20:50:54 40° SSW 20:54:02 10° SE daylight
28 May - 15:08:06 10° SSW 15:10:57 27° SE 15:13:49 10° E daylight
28 May - 16:44:00 10° WSW 16:47:20 89° N 16:50:41 10° ENE daylight
28 May - 18:20:46 10° W 18:24:06 66° N 18:27:25 10° E daylight
28 May - 19:57:27 10° WNW 20:00:45 59° SSW 20:04:01 10° SE daylight
28 May - 21:35:01 10° WSW 21:36:50 14° SW 21:38:39 10° S daylight
29 May - 14:18:34 10° S 14:20:53 18° SE 14:23:13 10° E daylight
29 May - 15:53:46 10° WSW 15:57:05 70° SSE 16:00:24 10° ENE daylight
29 May - 17:30:27 10° W 17:33:47 64° N 17:37:06 10° E daylight
29 May - 19:07:10 10° WNW 19:10:31 80° SSW 19:13:49 10° ESE daylight
29 May - 20:44:10 10° W 20:46:47 21° SW 20:49:23 10° SSE daylight
30 May - 13:29:44 10° SSE 13:30:49 11° SE 13:31:57 10° ESE daylight
30 May - 15:03:36 10° SW 15:06:50 50° SSE 15:10:04 10° ENE daylight
30 May - 16:40:06 10° W 16:43:25 68° N 16:46:45 10° ENE daylight
30 May - 18:16:51 10° WNW 18:20:12 81° NNE 18:23:32 10° ESE daylight
30 May - 19:53:38 10° W 19:56:38 32° SSW 19:59:37 10° SSE daylight
31 May - 14:13:33 10° SW 14:16:35 34° SSE 14:19:38 10° E daylight
31 May - 15:49:43 10° W 15:53:03 79° NNW 15:56:23 10° ENE daylight
31 May - 17:26:29 10° WNW 17:29:49 69° N 17:33:08 10° E daylight
31 May - 19:03:10 10° WNW 19:06:23 47° SSW 19:09:36 10° SE daylight
31 May - 20:41:39 10° WSW 20:42:21 11° SW 20:43:04 10° SSW daylight
01 Jun - 13:23:42 10° SSW 13:26:22 23° SE 13:29:02 10° E daylight
01 Jun - 14:59:20 10° WSW 15:02:39 83° SSE 15:06:00 10° ENE daylight
01 Jun - 16:36:04 10° W 16:39:23 64° N 16:42:42 10° E daylight
01 Jun - 18:12:45 10° WNW 18:16:03 67° SSW 18:19:21 10° ESE daylight
01 Jun - 19:50:01 10° W 19:52:13 17° SW 19:54:25 10° S daylight
02 Jun - 12:34:12 10° S 12:36:09 15° SE 12:38:07 10° ESE daylight
02 Jun - 14:08:59 10° WSW 14:12:16 61° SSE 14:15:33 10° ENE daylight
02 Jun - 15:45:36 10° W 15:48:54 65° N 15:52:13 10° E daylight
02 Jun - 17:22:18 10° WNW 17:25:39 89° SSW 17:28:58 10° ESE daylight
02 Jun - 18:59:11 10° W 19:01:59 25° SW 19:04:46 10° SSE daylight
